Weather History for KUIN - October, 2013

Change the Weather History Date:

Thursday, October 24, 2013

  Actual Average Record
Temperature  
Mean Temperature 35 °F 52 °F  
Max Temperature 44 °F 62 °F 84 °F (1940)
Min Temperature 26 °F 42 °F 23 °F (1981)
Degree Days  
Heating Degree Days 30 13  
Month to date heating degree days 227 235  
Since 1 July heating degree days 264 322  
Cooling Degree Days 0 0  
Month to date cooling degree days 43 14  
Year to date cooling degree days 1242 1090  
Moisture  
Dew Point 25 °F    
Average Humidity 67    
Maximum Humidity 92    
Minimum Humidity 41    
Precipitation  
Precipitation 0.00 in 0.09 in 1.09 in (1975)
Month to date precipitation 0.69 2.34  
Year to date precipitation 30.59 31.39  
Sea Level Pressure  
Sea Level Pressure 30.28 in    
Wind  
Wind Speed 9 mph (NW)    
Max Wind Speed 22 mph    
Max Gust Speed 29 mph    
Visibility 10 miles    
Events      
T = Trace of Precipitation, MM = Missing Value Source: NWS Daily Summary

Daily Weather History Graph

Daily Weather History Graph

Search for Another Location

Airport or City:

Trip Planner

Search our weather history database for the weather conditions in past years. The results will help you decide how hot, cold, wet, or windy it might be!

Date:

Astronomy

Oct. 24, 2013 Rise Set
Actual Time 7:25 AM CDT 6:12 PM CDT
Civil Twilight 6:57 AM CDT 6:39 PM CDT
Nautical Twilight 6:25 AM CDT 7:11 PM CDT
Astronomical Twilight 5:54 AM CDT 7:42 PM CDT
Moon 10:36 PM CDT (10/24) 12:26 PM CDT (10/24)
Length of Visible Light 11h 42m
Length of Day
10h 47m
Waning Gibbous, 71% of the Moon is Illuminated
Oct 24
Waning Gibbous
Oct 26
Last Quarter
Nov 3
New
Nov 9
First Quarter
Nov 17
Full

Hourly Weather History & Observations

Time (CDT) Temp. Windchill Dew Point Humidity Pressure Visibility Wind Dir Wind Speed Gust Speed Precip Events Conditions
12:54 AM 37.9 °F 32.1 °F 35.1 °F 89% 30.13 in 10.0 mi West 8.1 mph - N/A   Overcast
1:21 AM 39.2 °F 32.5 °F 35.6 °F 87% 30.12 in 10.0 mi WNW 10.4 mph - N/A   Overcast
1:54 AM 39.0 °F 32.8 °F 35.1 °F 86% 30.14 in 10.0 mi WNW 9.2 mph - N/A   Overcast
2:54 AM 39.0 °F 31.8 °F 32.0 °F 76% 30.15 in 10.0 mi NW 11.5 mph - N/A   Overcast
3:54 AM 37.9 °F 31.5 °F 30.9 °F 76% 30.15 in 10.0 mi NW 9.2 mph - N/A   Overcast
4:54 AM 37.9 °F 28.2 °F 25.0 °F 60% 30.17 in 10.0 mi NW 18.4 mph 24.2 mph N/A   Overcast
5:54 AM 34.0 °F 26.6 °F 21.9 °F 61% 30.20 in 10.0 mi NW 9.2 mph - N/A   Scattered Clouds
6:54 AM 32.0 °F 26.4 °F 23.0 °F 69% 30.21 in 10.0 mi WNW 5.8 mph - N/A   Clear
7:54 AM 33.1 °F 26.9 °F 25.0 °F 72% 30.24 in 10.0 mi West 6.9 mph - N/A   Clear
8:54 AM 37.0 °F 28.1 °F 26.1 °F 65% 30.26 in 10.0 mi NW 15.0 mph 21.9 mph N/A   Clear
9:54 AM 39.0 °F 31.0 °F 26.1 °F 60% 30.28 in 10.0 mi NW 13.8 mph 25.3 mph N/A   Scattered Clouds
10:11 AM 39.2 °F 30.2 °F 26.6 °F 61% 30.27 in 10.0 mi NW 17.3 mph 24.2 mph N/A   Mostly Cloudy
10:21 AM 39.2 °F 29.8 °F 26.6 °F 61% 30.27 in 10.0 mi NW 18.4 mph - N/A   Mostly Cloudy
10:54 AM 39.0 °F 30.6 °F 24.1 °F 55% 30.30 in 10.0 mi NNW 15.0 mph - N/A   Overcast
11:54 AM 39.9 °F 32.5 °F 21.0 °F 47% 30.32 in 10.0 mi NW 12.7 mph 20.7 mph N/A   Overcast
12:54 PM 41.0 °F 33.5 °F 21.9 °F 47% 30.32 in 10.0 mi NNW 13.8 mph - N/A   Overcast
1:54 PM 41.0 °F 33.1 °F 21.9 °F 47% 30.32 in 10.0 mi NW 15.0 mph 23.0 mph N/A   Overcast
2:54 PM 42.1 °F 34.2 °F 21.9 °F 45% 30.32 in 10.0 mi NNW 16.1 mph - N/A   Overcast
3:54 PM 43.0 °F 34.5 °F 21.9 °F 43% 30.33 in 10.0 mi NNW 19.6 mph 24.2 mph N/A   Overcast
4:54 PM 41.0 °F 33.1 °F 19.9 °F 43% 30.34 in 10.0 mi NW 15.0 mph - N/A   Mostly Cloudy
5:54 PM 39.0 °F 34.8 °F 21.0 °F 49% 30.35 in 10.0 mi NNW 5.8 mph - N/A   Mostly Cloudy
6:54 PM 37.0 °F - 21.9 °F 54% 30.36 in 10.0 mi Calm Calm - N/A   Partly Cloudy
7:54 PM 35.1 °F - 21.0 °F 57% 30.37 in 10.0 mi Calm Calm - N/A   Scattered Clouds
8:54 PM 30.9 °F - 21.9 °F 69% 30.38 in 10.0 mi Calm Calm - N/A   Clear
9:54 PM 27.0 °F 23.0 °F 21.0 °F 78% 30.40 in 10.0 mi SSW 3.5 mph - N/A   Clear
10:54 PM 28.0 °F 24.2 °F 21.9 °F 78% 30.41 in 10.0 mi SW 3.5 mph - N/A   Clear
11:54 PM 27.0 °F 23.0 °F 21.9 °F 81% 30.42 in 10.0 mi SW 3.5 mph - N/A   Clear